User: anonymous   Login
Location: Pine Mountain Observatory
(43.7910°N, 120.9377°W)
Time: 22:08:47
(UTC-08:00)
Language:

Meteor 2-19 Rocket - Orbit

View from above orbital plane
View from above orbital plane
View from above satellite
View from above satellite

Ground track
Ground track

The orbit data is extracted from the following two-line orbital elements,

1 20671U 90057B   17051.65926940  .00000018  00000-0  28804-5 0  9998
2 20671  82.5457 104.7529 0013882 285.7033  74.2596 13.84606127346933
Epoch (UTC): 20 February 2017 15:49:20
Eccentricity: 0.0013882
inclination: 82.5457°
perigee height: 937 km
apogee height: 958 km
right ascension of ascending node: 104.7529°
argument of perigee: 285.7033°
revolutions per day: 13.84606127
mean anomaly at epoch: 74.2596°
orbit number at epoch: 34693

The dashed part of the orbit path shows where the satellite is in the earth's shadow,  

DLR